Weather History for Leuchars, United Kingdom

Change the Weather History Date:

Friday, October 14, 2011

  Actual Average Record
Temperature  
Mean Temperature 56 °F -  
Max Temperature 62 °F 50 °F 62 °F (2011)
Min Temperature 51 °F 40 °F 33 °F (2005)
Degree Days  
Heating Degree Days 8    
Growing Degree Days 6 (Base 50)    
Moisture  
Dew Point 52 °F    
Average Humidity 82    
Maximum Humidity 94    
Minimum Humidity 65    
Precipitation  
Precipitation 0.00 in - - ()
Sea Level Pressure  
Sea Level Pressure 30.29 in    
Wind  
Wind Speed 6 mph ()    
Max Wind Speed 13 mph    
Max Gust Speed -    
Visibility 7.4 miles    
Events Rain    
Averages and records for this station are not official NWS values.
T = Trace of Precipitation, MM = Missing Value Source: Averaged Metar Reports

Daily Weather History Graph

Daily Weather History Graph

Search for Another Location

Airport:

Trip Planner

Search our weather history database for the weather conditions in past years. The results will help you decide how hot, cold, wet, or windy it might be!

Date:

Astronomy

Oct. 14, 2011 Rise Set
Actual Time 7:40 AM BST 6:13 PM BST
Civil Twilight 7:02 AM BST 6:51 PM BST
Nautical Twilight 6:19 AM BST 7:34 PM BST
Astronomical Twilight 5:35 AM BST 8:18 PM BST
Moon 6:36 PM BST (10/14) 10:34 AM BST (10/14)
Length of Visible Light 11h 48m
Length of Day
10h 33m
Waning Gibbous, 95% of the Moon is Illuminated
Oct 14
Waning Gibbous
Oct 20
Last Quarter
Oct 26
New
Nov 2
First Quarter
Nov 10
Full

Hourly Weather History & Observations

Time (BST) Temp. Dew Point Humidity Pressure Visibility Wind Dir Wind Speed Gust Speed Precip Events Conditions
12:50 AM 55 °F 51 °F 84% 30.36 in 11 mi West 4.6 mph - -   Overcast
12:50 AM 55.4 °F 51.8 °F 88% 30.36 in 6.2 mi West 4.6 mph - N/A   Overcast
1:50 AM 55.4 °F 51.8 °F 88% 30.33 in 6.2 mi SW 8.1 mph - N/A   Overcast
2:50 AM 51.8 °F 50.0 °F 94% 30.33 in 6.2 mi SW 5.8 mph - N/A   Mostly Cloudy
3:50 AM 54 °F 50 °F 82% 30.34 in 9 mi SW 3.5 mph - -   Mostly Cloudy
3:50 AM 53.6 °F 50.0 °F 88% 30.33 in 6.2 mi SW 3.5 mph - N/A   Mostly Cloudy
4:50 AM 53.6 °F 50.0 °F 88% 30.33 in - NW 4.6 mph - N/A   Clear
6:50 AM 54 °F 51 °F 88% 30.33 in 7 mi SSE 2.3 mph - -   Overcast
7:50 AM 55.4 °F 51.8 °F 88% 30.33 in 6.2 mi South 4.6 mph - N/A   Mostly Cloudy
8:50 AM 53.6 °F 51.8 °F 94% 30.33 in 6.2 mi SSE 4.6 mph - N/A   Mostly Cloudy
9:50 AM 56 °F 52 °F 83% 30.33 in 7 mi ESE 3.5 mph - -   Haze
9:50 AM 55.4 °F 51.8 °F 88% 30.33 in - ESE 3.5 mph - N/A   Clear
10:50 AM 57.2 °F 51.8 °F 82% 30.33 in - East 2.3 mph - N/A   Clear
11:50 AM 59.0 °F 53.6 °F 82% 30.33 in - South 2.3 mph - N/A   Clear
12:50 PM 61 °F 54 °F 71% 30.32 in 9 mi WSW 5.8 mph - -   Mostly Cloudy
12:50 PM 60.8 °F 53.6 °F 77% 30.30 in 6.2 mi WSW 5.8 mph - N/A   Mostly Cloudy
1:50 PM 62.6 °F 51.8 °F 68% 30.30 in 6.2 mi SSW 8.1 mph - N/A   Mostly Cloudy
2:50 PM 62.6 °F 53.6 °F 72% 30.27 in 6.2 mi SW 9.2 mph - N/A   Mostly Cloudy
3:50 PM 61 °F 52 °F 65% 30.28 in 16 mi SW 10.4 mph - -   Mostly Cloudy
3:50 PM 60.8 °F 51.8 °F 72% 30.27 in 6.2 mi SW 10.4 mph - N/A   Mostly Cloudy
4:50 PM 60.8 °F 53.6 °F 77% 30.24 in 6.2 mi SW 10.4 mph - N/A   Mostly Cloudy
5:50 PM 59.0 °F 53.6 °F 82% 30.24 in 6.2 mi SW 12.7 mph - N/A   Mostly Cloudy
6:50 PM 58 °F 54 °F 80% 30.27 in 12 mi SW 10.4 mph - -   Mostly Cloudy
6:50 PM 59.0 °F 53.6 °F 82% 30.24 in 6.2 mi SW 10.4 mph - N/A   Mostly Cloudy
7:50 PM 57.2 °F 53.6 °F 88% 30.24 in 6.2 mi SSW 8.1 mph - N/A Rain Light Rain
8:50 PM 59.0 °F 53.6 °F 82% 30.24 in 6.2 mi SSW 10.4 mph - N/A   Mostly Cloudy
9:50 PM 57 °F 53 °F 82% 30.25 in 9 mi South 11.5 mph - -   Partly Cloudy
9:50 PM 57.2 °F 53.6 °F 88% 30.24 in 6.2 mi South 11.5 mph - N/A   Mostly Cloudy
10:50 PM 57.2 °F 53.6 °F 88% 30.24 in 6.2 mi SSW 9.2 mph - N/A   Overcast
11:50 PM 57.2 °F 51.8 °F 82% 30.21 in 6.2 mi SSW 12.7 mph - N/A   Overcast